Weather History for Bloomington, IN

Change the Weather History Date:

Thursday, July 17, 2014

  Actual Average Record
Temperature  
Mean Temperature 65 °F 74 °F  
Max Temperature 78 °F 84 °F 98 °F (2012)
Min Temperature 51 °F 64 °F 51 °F (2014)
Degree Days  
Heating Degree Days 0 0  
Month to date heating degree days 2 0  
Since 1 June heating degree days 5 15  
Since 1 July heating degree days 2 0  
Cooling Degree Days 0 9  
Month to date cooling degree days 99 153  
Year to date cooling degree days 498 443  
Since 1 June cooling degree days 372 361  
Growing Degree Days 14 (Base 50)    
Moisture  
Dew Point 52 °F    
Average Humidity 68    
Maximum Humidity 96    
Minimum Humidity 39    
Precipitation  
Precipitation 0.00 in 0.21 in 0.55 in (2007)
Month to date precipitation 2.05 3.00  
Year to date precipitation 25.82 27.78  
Sea Level Pressure  
Sea Level Pressure 30.09 in    
Wind  
Wind Speed 2 mph (North)    
Max Wind Speed 9 mph    
Max Gust Speed 17 mph    
Visibility 7 miles    
Events      
T = Trace of Precipitation, MM = Missing Value Source: NWS Daily Summary

Daily Weather History Graph

Daily Weather History Graph

Search for Another Location

Airport:

Trip Planner

Search our weather history database for the weather conditions in past years. The results will help you decide how hot, cold, wet, or windy it might be!

Date:

Astronomy

Jul. 17, 2014 Rise Set
Actual Time 6:34 AM EDT 9:10 PM EDT
Civil Twilight 6:03 AM EDT 9:41 PM EDT
Nautical Twilight 5:24 AM EDT 10:20 PM EDT
Astronomical Twilight 4:40 AM EDT 11:03 PM EDT
Moon No Moon Rise 12:42 PM EDT (7/17)
Length of Visible Light 15h 38m
Length of Day
14h 36m
Waning Gibbous, 66% of the Moon is Illuminated
Jul 17
Waning Gibbous
Jul 18
Last Quarter
Jul 26
New
Aug 3
First Quarter
Aug 10
Full

Hourly Weather History & Observations

Time (EDT) Temp. Dew Point Humidity Pressure Visibility Wind Dir Wind Speed Gust Speed Precip Events Conditions
12:53 AM 54.0 °F 52.0 °F 93% 30.05 in 10.0 mi Calm Calm - N/A   Clear
1:53 AM 53.1 °F 51.1 °F 93% 30.06 in 9.0 mi Calm Calm - N/A   Clear
2:53 AM 53.1 °F 50.0 °F 89% 30.06 in 1.5 mi Calm Calm - N/A   Clear
3:05 AM 53.1 °F 51.1 °F 93% 30.07 in 4.0 mi Calm Calm - N/A   Clear
3:53 AM 52.0 °F 50.0 °F 93% 30.06 in 8.0 mi Calm Calm - N/A   Clear
4:03 AM 52.0 °F 50.0 °F 93% 30.06 in 2.0 mi Calm Calm - N/A   Clear
4:12 AM 52.0 °F 48.9 °F 89% 30.07 in 6.0 mi Calm Calm - N/A   Clear
4:24 AM 52.0 °F 50.0 °F 93% 30.07 in 1.8 mi Calm Calm - N/A   Clear
4:36 AM 51.1 °F 48.9 °F 92% 30.07 in 3.0 mi Calm Calm - N/A   Clear
4:53 AM 52.0 °F 50.0 °F 93% 30.07 in 6.0 mi Calm Calm - N/A   Clear
5:07 AM 51.1 °F 48.9 °F 92% 30.08 in 2.5 mi Calm Calm - N/A   Clear
5:15 AM 51.1 °F 48.9 °F 92% 30.09 in 5.0 mi Calm Calm - N/A   Clear
5:30 AM 51.1 °F 48.9 °F 92% 30.09 in 1.8 mi Calm Calm - N/A   Clear
5:36 AM 51.1 °F 48.9 °F 92% 30.10 in 3.0 mi Calm Calm - N/A   Clear
5:53 AM 51.1 °F 48.9 °F 92% 30.09 in 4.0 mi Calm Calm - N/A   Partly Cloudy
6:53 AM 53.1 °F 51.1 °F 93% 30.10 in 8.0 mi Calm Calm - N/A   Overcast
7:53 AM 55.9 °F 54.0 °F 93% 30.11 in 6.0 mi Calm Calm - N/A   Mostly Cloudy
8:53 AM 64.0 °F 55.9 °F 75% 30.12 in 10.0 mi Calm Calm - N/A   Clear
10:53 AM 72.0 °F 53.1 °F 51% 30.13 in 10.0 mi North 5.8 mph - N/A   Clear
11:53 AM 72.0 °F 51.1 °F 48% 30.13 in 10.0 mi NNW 5.8 mph - N/A   Clear
12:53 PM 73.9 °F 51.1 °F 45% 30.12 in 10.0 mi Variable 5.8 mph - N/A   Clear
1:53 PM 75.0 °F 52.0 °F 44% 30.11 in 10.0 mi Calm Calm - N/A   Clear
2:53 PM 75.9 °F 50.0 °F 40% 30.11 in 10.0 mi NE 4.6 mph - N/A   Partly Cloudy
3:53 PM 78.1 °F 51.1 °F 39% 30.10 in 10.0 mi NNE 5.8 mph - N/A   Partly Cloudy
4:53 PM 78.1 °F 51.1 °F 39% 30.10 in 10.0 mi North 8.1 mph - N/A   Clear
5:53 PM 73.9 °F 55.0 °F 52% 30.10 in 10.0 mi North 5.8 mph - N/A   Mostly Cloudy
6:53 PM 72.0 °F 55.9 °F 57% 30.10 in 10.0 mi Calm Calm - N/A   Mostly Cloudy
7:53 PM 72.0 °F 57.0 °F 59% 30.11 in 10.0 mi North 3.5 mph - N/A   Overcast
8:53 PM 66.9 °F 59.0 °F 76% 30.11 in 10.0 mi Calm Calm - N/A   Partly Cloudy
9:53 PM 62.1 °F 57.0 °F 84% 30.12 in 10.0 mi Calm Calm - N/A   Clear
10:53 PM 61.0 °F 55.9 °F 83% 30.13 in 10.0 mi Calm Calm - N/A   Scattered Clouds
11:53 PM 57.9 °F 55.0 °F 90% 30.13 in 10.0 mi Calm Calm - N/A   Clear